РПИ Самара

Региональный центр Самара (РегЦ) Единой системы организации воздушного движения сети VATSIM является структурным подразделением VATRUS и находится в составе региона "Западная Россия", в который также входят территории Регионального центра Москва и Зонального центра Минск, включающего всю территория Республики Беларусь.

Сегодня зона ответственности РегЦ Самара – это воздушное пространство над территориями 5 республик (Татарстан, Марий Эл, Башкортостан, Мордовия, Чувашия) и 5 областей (Оренбургская, Самарская, Саратовская, Ульяновская и Пензенская) общей площадью около 600 тысяч квадратных километров.

Для РДЦ (Самара-Контроль) предусмотрено деление, которое может вводиться в случае загруженности зоны. Если вы видите в сети несколько позиций Самара-Контроль — посмотрите нашу интерактивную карту.

Протяжённость воздушных трасс составляет более 27,5 тысяч километров, из них более 23 тысяч километров составляют международные. В структуру воздушного пространства входят районы полетов 17 гражданских аэродромов (из них 11 - международные) и 23 аэродрома государственной и экспериментальной авиации. В тоже время доступно большое количество аэродромов и посадочных площадок для малой авиации. Также на территории района находится около десятка учебных аэродромов лётных училищ России - УИГА, БЛУГА, СПбГУГА и ККЛУГА.

С 2020 года РегЦ Самара, как и вся западная часть территории России, перешёл на выполнение полетов на высотах в футах по давлению QNH. На каждом аэродроме устанавливается фиксированная высота перехода в футах, при этом эшелон перехода может меняться в зависимости от текущего показателя давления QNH. Исключение составляет аэродром Уфы, где эшелон перехода зафиксирован и равен FL70.

Практически все аэродромы, расположенные в РЦ Самара, нашли своё представление во всех известных гражданских авиасимуляторах, начиная от FS9 и заканчивая MSFS2020. Вы можете найти варианты сценариев (как платных, так и бесплатных) для вашего симулятора на страничке соответствующего аэродрома - список и ссылки приведены ниже.

Одним из преимуществ РегЦ Самара с точки зрения полётов в сети VATSIM является его близость к популярному среди виртуальных пилотов РегЦ Москва, что позволяет совершить короткий перелёт из любого аэропорта Москвы в Поволжье и обратно в течение нескольких часов, что сравнимо по времени с самым популярным среди симмеров маршрутом из Москвы в Петербург и обратно.

При этом следует отметить, что по своей красоте мало какой из регионов может соревноваться с красотами Поволжья, особенно в летний период. Для вашего первого полёта рекомендуем аэродромы Казани и Самары, расположенные на берегах великой реки Волги. Если вы используете для полётов современный симулятор MSFS2020, то наслаждение полётом и внешними видами вам точно будет обеспечено, и вы не раз захотите повторить этот опыт.

Лого Самара
Руководство

Alexander Petrenko

Начальник РегЦ ЕС ОрВД (Самара)

Ivan Buev

Ивент-менеджер
Контакты

Инструкторы РПИ
Alexander Mikhin (Instructor)
Alexander Petrenko (Instructor)
Artem Morozov * (Controller)
Artem Smorchkov (Instructor)
Ivan Buev (Instructor)
Ivan Chokenyuk * (Controller)
Ivan Skatov (Instructor)
Sergei Stetsko * (Controller)
Входит в состав
Западная Россия

Диспетчеры РПИ

Диспетчер Рейтинг Допуски *
Alexander Mikhin Instructor UWWW_CTR
Alexander Petrenko Instructor UWWW_CTR
Alexey Dobronravov Instructor UWWW_CTR
Anton Gluchenkov Senior Student UWWW_CTR  *, UWWW_APP
Artem Morozov Controller UWWW_CTR
Artem Smorchkov Instructor UWWW_CTR
Dmitry Bugaychuk Instructor UWWW_CTR
Dmitry Markus Instructor UWWW_CTR
Ivan Buev Instructor UWWW_CTR
Ivan Chokenyuk Controller UWWW_CTR
Ivan Skatov Instructor UWWW_CTR
Maxim Tsygankov Instructor UWWW_CTR
Nick Smirnov Instructor UWWW_CTR
Sergei Stetsko Controller UWWW_CTR
Stanley Yorke Controller UWWW_CTR
Vladimir Anisimov Senior Controller UWWW_CTR
Yulia Goryacheva Instructor UWWW_CTR
Yury Koryagin Instructor UWWW_CTR
Alexander Akhundov Student 2 UWLL_TWR
Alexandr Sosnovsky Senior Student UWKB_R_TWR
Arseniy Artyushin Student 2 UWWW_APP*, UWWW_TWR!!!
Artem Badalov Senior Student UWKB_R_TWR
Arthur Kurbangaleev Student UWWW_GND
Egor Chertukhin Student UWWW_GND
Evgeniy Dedyaev Senior Student UWKD_APP(UWKD+UWKS+UWKE+UWKJ+UWKB) , UWLL_APP(UWLL+UWLW) , UWSG_APP, UWUU_APP, UWWW_APP
Evgeny Dubovitsky Student 2 UWLL_TWR, UWWW_TWR
Evgeny Zuev Senior Student UWWW_APP
Ivan Mishin Student UWWW_GND
Ivan Zubov Student 2 UWLL_TWR
mansur sibgatullin Student 2 UWKD_TWR, UWKD_APP(UWKD+UWKS+UWKE+UWKJ+UWKB) , UWWW_TWR
Maxim Gerasimov Instructor UWLL_APP(UWLL+UWLW)
Maxim Kalalenskiy Student 2 UWKD_TWR, UWLL_TWR, UWWW_TWR
Nikita Ioshkin Senior Student UWWW_APP
Nikita Samoilov Student UWWW_GND
Vasya Voronin Student UWLL_GND

Аэропорты РПИ

ICAO Город Название Погода
UWWW Самара Курумоч UWWW 190800Z 24006MPS 9999 SCT033 28/16 Q1008 R15/CLRD63 NOSIG RMK QFE745/0993
UWUU Уфа Уфа UWUU 190800Z 21007MPS 9999 -SHRA VCTS BKN050CB 23/21 Q1009 R14R/290244 TEMPO VRB20MPS 2000 TSRAGR SQ BKN010CB
UWKB Бугульма Бугульма
UWKJ Йошкар-Ола Йошкар-Ола
UWKD Казань Казань UWKD 190800Z 24005MPS 210V270 9999 BKN020CB 24/18 Q1006 R29/CLRD70 NOSIG RMK QFE743/0991
UWKE Нижнекамск Бегишево UWKE 190800Z 25008MPS 9999 FEW029 27/18 Q1006 R21/090070 NOSIG RMK QFE738/0984
UWOO Оренбург Оренбург UWOO 190800Z VRB01MPS 9999 SCT049 31/19 Q1010 R26/210057 NOSIG RMK QFE747/0996
UWOR Орск Орск UWOR 190800Z 21005MPS CAVOK 31/14 Q1013 R25/CLRD65 NOSIG RMK QFE736/0981
UWPP Пенза Пенза
UWPS Саранск Саранск UWPS 190800Z 27006MPS 9999 BKN011CB 19/17 Q1011 R20/CLRD60 NOSIG RMK QFE740
UWSG Саратов Гагарин UWSG 190800Z 28009MPS 9999 SCT033 26/16 Q1012 R26/CLRD70 NOSIG RMK QFE756/1008
UWLL Ульяновск-УЛК Ульяновск UWLL 190800Z 25007MPS 9999 BKN022CB 23/18 Q1008 R20/090065 NOSIG RMK QFE746/0994
UWLW Ульяновск-УЛС Восточный UWLW 190800Z 23006MPS 9999 BKN040CB 24/18 Q1008 R20/CLRD60 NOSIG RMK QFE750/1000
UWKS Чебоксары Чебоксары UWKS 190800Z 26005MPS 9999 -TSRA BKN015CB 22/21 Q1005 R24/290155 NOSIG RMK QFE739